Private Wetterstation Wechselburg
Wetterdaten: Sonntag, 03.01.2016
Datum Zeit Temp. +2m Bodentemp. Temp.+5cm Temp. Wind Windchill X Diff Temp. Feuchte +2m Feuchte +5cm Sonnenschein Luftdruck Regen Wind Richtung Richtung Sonnenschein Taupunkt Windchill Windben
03.01.2016 00:00 -3,3 C 22,3 C -2,0 C -3,7 C -4,4 C 0,0 C 86 % 89 % 0 % 1017,9 hPa 0,0 l/m 5,0 km/h (1 Bft) O-NO 67 0 min -5,3 C -6,6 C 6,1 km/h (2 Bft)
03.01.2016 00:05 -3,3 C 22,3 C -2,0 C -3,7 C -4,5 C 0,0 C 86 % 89 % 0 % 1017,9 hPa 0,0 l/m 5,1 km/h (1 Bft) O-NO 67 0 min -5,3 C -6,7 C 5,5 km/h (1 Bft)
03.01.2016 00:10 -3,3 C 22,3 C -2,0 C -3,8 C -4,7 C 0,0 C 86 % 89 % 0 % 1017,9 hPa 0,0 l/m 5,6 km/h (1 Bft) O-NO 67 0 min -5,3 C -7,2 C 6,4 km/h (2 Bft)
03.01.2016 00:15 -3,4 C 22,3 C -2,0 C -3,9 C -4,8 C 0,0 C 86 % 89 % 0 % 1017,9 hPa 0,0 l/m 6,0 km/h (2 Bft) O-NO 67 0 min -5,4 C -7,5 C 6,8 km/h (2 Bft)
03.01.2016 00:20 -3,4 C 22,2 C -2,0 C -3,9 C -5,0 C 0,0 C 86 % 89 % 0 % 1017,9 hPa 0,0 l/m 6,4 km/h (2 Bft) O-NO 67 0 min -5,4 C -8,0 C 9,8 km/h (2 Bft)
03.01.2016 00:25 -3,4 C 22,2 C -2,0 C -3,9 C -4,8 C 0,0 C 86 % 89 % 0 % 1017,9 hPa 0,0 l/m 6,1 km/h (2 Bft) O-NO 67 0 min -5,4 C -7,6 C 5,3 km/h (1 Bft)
03.01.2016 00:30 -3,3 C 22,2 C -1,9 C -3,7 C -4,4 C 0,0 C 86 % 89 % 0 % 1018,0 hPa 0,0 l/m 5,3 km/h (1 Bft) O-NO 67 0 min -5,3 C -6,7 C 5,3 km/h (1 Bft)
03.01.2016 00:35 -3,3 C 22,2 C -1,9 C -3,6 C -4,2 C 0,0 C 86 % 89 % 0 % 1018,0 hPa 0,0 l/m 4,8 km/h (1 Bft) O-NO 67 0 min -5,3 C -6,2 C 4,8 km/h (1 Bft)
03.01.2016 00:41 -3,3 C 22,2 C -1,9 C -3,6 C -4,1 C 0,0 C 86 % 89 % 0 % 1018,0 hPa 0,0 l/m 4,8 km/h (1 Bft) N 0 0 min -5,3 C -6,1 C 5,6 km/h (1 Bft)
03.01.2016 00:50 -3,3 C 22,1 C -1,9 C -3,5 C -4,0 C 0,0 C 86 % 89 % 0 % 1018,1 hPa 0,0 l/m 4,7 km/h (1 Bft) NO 45 0 min -5,3 C -6,0 C 4,3 km/h (1 Bft)
03.01.2016 00:55 -3,3 C 22,1 C -1,9 C -3,5 C -3,9 C 0,0 C 86 % 89 % 0 % 1018,1 hPa 0,0 l/m 4,5 km/h (1 Bft) NO 45 0 min -5,3 C -3,9 C 4,7 km/h (1 Bft)
03.01.2016 01:00 -3,3 C 22,1 C -1,7 C -3,5 C -3,8 C 0,0 C 86 % 90 % 0 % 1018,1 hPa 0,0 l/m 4,3 km/h (1 Bft) NO 45 0 min -5,3 C -3,8 C 6,4 km/h (2 Bft)
03.01.2016 01:05 -3,3 C 22,1 C -1,9 C -3,5 C -3,9 C 0,0 C 86 % 89 % 0 % 1018,1 hPa 0,0 l/m 4,5 km/h (1 Bft) O-NO 67 0 min -5,3 C -3,9 C 4,8 km/h (1 Bft)
03.01.2016 01:10 -3,3 C 22,1 C -1,9 C -3,5 C -4,0 C 0,0 C 86 % 89 % 0 % 1017,9 hPa 0,0 l/m 4,7 km/h (1 Bft) O-NO 67 0 min -5,3 C -6,0 C 4,0 km/h (1 Bft)
03.01.2016 01:15 -3,3 C 22,1 C -2,0 C -3,6 C -4,1 C 0,0 C 86 % 89 % 0 % 1017,9 hPa 0,0 l/m 4,5 km/h (1 Bft) O-NO 67 0 min -5,3 C -4,1 C 4,3 km/h (1 Bft)
03.01.2016 01:20 -3,3 C 22,1 C -1,9 C -3,6 C -4,3 C 0,0 C 86 % 89 % 0 % 1017,9 hPa 0,0 l/m 4,8 km/h (1 Bft) O 90 0 min -5,3 C -6,4 C 3,7 km/h (1 Bft)
03.01.2016 01:25 -3,3 C 22,0 C -2,1 C -3,6 C -4,3 C 0,0 C 86 % 89 % 0 % 1017,9 hPa 0,0 l/m 4,8 km/h (1 Bft) O-NO 67 0 min -5,3 C -6,4 C 4,3 km/h (1 Bft)
03.01.2016 01:30 -3,5 C 22,0 C -2,1 C -3,8 C -4,4 C 0,0 C 86 % 89 % 0 % 1017,9 hPa 0,0 l/m 4,8 km/h (1 Bft) O-NO 67 0 min -5,5 C -6,5 C 4,8 km/h (1 Bft)
03.01.2016 01:35 -3,5 C 22,0 C -2,1 C -3,8 C -4,4 C 0,0 C 86 % 89 % 0 % 1017,9 hPa 0,0 l/m 4,8 km/h (1 Bft) O-NO 67 0 min -5,5 C -6,5 C 5,3 km/h (1 Bft)
03.01.2016 01:40 -3,5 C 22,0 C -2,1 C -3,8 C -4,3 C 0,0 C 86 % 89 % 0 % 1017,9 hPa 0,0 l/m 4,3 km/h (1 Bft) O-NO 67 0 min -5,5 C -4,3 C 4,8 km/h (1 Bft)
03.01.2016 01:45 -3,5 C 22,0 C -2,1 C -3,8 C -4,3 C 0,0 C 86 % 89 % 0 % 1017,9 hPa 0,0 l/m 4,3 km/h (1 Bft) O 90 0 min -5,5 C -4,3 C 5,8 km/h (2 Bft)
03.01.2016 01:50 -3,6 C 22,0 C -2,1 C -3,9 C -4,6 C 0,0 C 86 % 89 % 0 % 1017,4 hPa 0,0 l/m 4,7 km/h (1 Bft) O-NO 67 0 min -5,6 C -6,6 C 4,5 km/h (1 Bft)
03.01.2016 01:55 -3,5 C 22,0 C -2,1 C -3,9 C -4,7 C 0,0 C 86 % 89 % 0 % 1017,4 hPa 0,0 l/m 4,8 km/h (1 Bft) O-NO 67 0 min -5,5 C -6,8 C 5,5 km/h (1 Bft)
03.01.2016 02:00 -3,7 C 21,9 C -2,1 C -4,0 C -4,5 C 0,0 C 86 % 89 % 0 % 1017,4 hPa 0,0 l/m 4,5 km/h (1 Bft) O-NO 67 0 min -5,7 C -4,5 C 5,1 km/h (1 Bft)
03.01.2016 02:05 -3,7 C 21,9 C -2,1 C -3,9 C -4,4 C 0,0 C 86 % 89 % 0 % 1017,4 hPa 0,0 l/m 4,3 km/h (1 Bft) O-NO 67 0 min -5,7 C -4,4 C 5,1 km/h (1 Bft)
03.01.2016 02:10 -3,7 C 21,9 C -2,1 C -4,0 C -4,5 C 0,0 C 86 % 89 % 0 % 1017,7 hPa 0,0 l/m 4,5 km/h (1 Bft) O-NO 67 0 min -5,7 C -4,5 C 6,1 km/h (2 Bft)
03.01.2016 02:15 -3,7 C 21,9 C -2,1 C -4,0 C -4,6 C 0,0 C 86 % 89 % 0 % 1017,7 hPa 0,0 l/m 4,7 km/h (1 Bft) O-NO 67 0 min -5,7 C -6,6 C 5,3 km/h (1 Bft)
03.01.2016 02:20 -3,6 C 21,9 C -2,2 C -3,8 C -4,3 C 0,0 C 86 % 89 % 0 % 1017,7 hPa 0,0 l/m 4,3 km/h (1 Bft) O-NO 67 0 min -5,6 C -4,3 C 5,1 km/h (1 Bft)
03.01.2016 02:25 -3,6 C 21,9 C -2,1 C -3,8 C -4,3 C 0,0 C 86 % 89 % 0 % 1017,7 hPa 0,0 l/m 4,3 km/h (1 Bft) NO 45 0 min -5,6 C -4,3 C 3,7 km/h (1 Bft)
03.01.2016 02:30 -3,6 C 21,9 C -2,1 C -3,8 C -4,3 C 0,0 C 86 % 89 % 0 % 1017,3 hPa 0,0 l/m 4,3 km/h (1 Bft) O-NO 67 0 min -5,6 C -4,3 C 4,8 km/h (1 Bft)
03.01.2016 02:35 -3,5 C 21,9 C -2,1 C -3,7 C -4,1 C 0,0 C 86 % 89 % 0 % 1017,3 hPa 0,0 l/m 4,2 km/h (1 Bft) O-NO 67 0 min -5,5 C -4,1 C 5,0 km/h (1 Bft)
03.01.2016 02:40 -3,5 C 21,9 C -2,1 C -3,7 C -4,2 C 0,0 C 86 % 89 % 0 % 1017,3 hPa 0,0 l/m 4,3 km/h (1 Bft) O-NO 67 0 min -5,5 C -4,2 C 4,3 km/h (1 Bft)
03.01.2016 02:45 -3,5 C 21,9 C -2,1 C -3,8 C -4,3 C 0,0 C 86 % 89 % 0 % 1017,3 hPa 0,0 l/m 4,5 km/h (1 Bft) O-NO 67 0 min -5,5 C -4,3 C 7,4 km/h (2 Bft)
03.01.2016 02:50 -3,5 C 21,9 C -2,1 C -3,9 C -4,8 C 0,0 C 86 % 89 % 0 % 1017,3 hPa 0,0 l/m 5,5 km/h (1 Bft) O 90 0 min -5,5 C -7,3 C 10,6 km/h (2 Bft)
03.01.2016 02:55 -3,5 C 21,8 C -2,1 C -4,0 C -4,9 C 0,0 C 86 % 89 % 0 % 1017,3 hPa 0,0 l/m 5,6 km/h (1 Bft) NO 45 0 min -5,5 C -7,5 C 5,8 km/h (2 Bft)
03.01.2016 03:00 -3,5 C 21,8 C -2,1 C -3,9 C -4,6 C 0,0 C 86 % 89 % 0 % 1017,3 hPa 0,0 l/m 5,1 km/h (1 Bft) O-NO 67 0 min -5,5 C -6,9 C 4,7 km/h (1 Bft)
03.01.2016 03:05 -3,5 C 21,8 C -2,1 C -3,8 C -4,4 C 0,0 C 86 % 89 % 0 % 1017,3 hPa 0,0 l/m 4,8 km/h (1 Bft) O-NO 67 0 min -5,5 C -6,5 C 5,6 km/h (1 Bft)
03.01.2016 03:10 -3,5 C 21,8 C -2,1 C -3,8 C -4,3 C 0,0 C 86 % 89 % 0 % 1017,3 hPa 0,0 l/m 4,5 km/h (1 Bft) O-NO 67 0 min -5,5 C -4,3 C 4,2 km/h (1 Bft)
03.01.2016 03:15 -3,5 C 21,8 C -2,1 C -3,7 C -4,0 C 0,0 C 86 % 89 % 0 % 1017,3 hPa 0,0 l/m 4,0 km/h (1 Bft) O-NO 67 0 min -5,5 C -4,0 C 4,7 km/h (1 Bft)
03.01.2016 03:20 -3,5 C 21,8 C -2,1 C -3,6 C -3,7 C 0,0 C 86 % 89 % 0 % 1017,3 hPa 0,0 l/m 3,5 km/h (1 Bft) O-NO 67 0 min -5,5 C -3,7 C 11,4 km/h (2 Bft)
03.01.2016 03:25 -3,3 C 21,8 C -1,9 C -3,6 C -4,1 C 0,0 C 86 % 89 % 0 % 1017,3 hPa 0,0 l/m 4,7 km/h (1 Bft) O 90 0 min -5,3 C -6,1 C 7,4 km/h (2 Bft)
03.01.2016 03:30 -2,9 C 21,8 C -1,5 C -3,3 C -4,1 C 0,0 C 86 % 89 % 0 % 1017,0 hPa 0,0 l/m 6,1 km/h (2 Bft) O-NO 67 0 min -4,9 C -6,8 C 12,6 km/h (3 Bft)
03.01.2016 03:35 -2,7 C 21,8 C -1,5 C -3,3 C -4,4 C 0,0 C 85 % 88 % 0 % 1017,0 hPa 0,0 l/m 6,9 km/h (2 Bft) O-NO 67 0 min -4,9 C -7,5 C 10,8 km/h (2 Bft)
03.01.2016 03:41 -2,3 C 21,8 C -1,2 C -2,7 C -4,6 C 0,0 C 84 % 88 % 0 % 1017,0 hPa 0,0 l/m 9,2 km/h (2 Bft) N 0 0 min -4,6 C -8,6 C 17,2 km/h (3 Bft)
03.01.2016 03:50 -1,7 C 21,8 C -0,9 C -2,3 C -4,7 C 0,0 C 83 % 87 % 0 % 1017,0 hPa 0,0 l/m 10,6 km/h (2 Bft) O 90 0 min -4,2 C -9,1 C 12,4 km/h (3 Bft)
03.01.2016 03:55 -1,7 C 21,8 C -0,9 C -2,3 C -4,8 C 0,0 C 82 % 86 % 0 % 1017,0 hPa 0,0 l/m 11,3 km/h (2 Bft) O-NO 67 0 min -4,4 C -9,4 C 10,9 km/h (2 Bft)
03.01.2016 04:00 -1,7 C 21,9 C -1,0 C -2,3 C -4,4 C 0,0 C 82 % 86 % 0 % 1017,0 hPa 0,0 l/m 9,8 km/h (2 Bft) O-NO 67 0 min -4,4 C -8,5 C 10,6 km/h (2 Bft)
03.01.2016 04:05 -1,6 C 22,0 C -0,9 C -2,1 C -4,3 C 0,0 C 81 % 86 % 0 % 1017,0 hPa 0,0 l/m 9,2 km/h (2 Bft) O-NO 67 0 min -4,4 C -8,2 C 14,2 km/h (3 Bft)
03.01.2016 04:10 -1,5 C 22,0 C -0,9 C -2,1 C -4,7 C 0,0 C 81 % 85 % 0 % 1017,0 hPa 0,0 l/m 10,1 km/h (2 Bft) O-NO 67 0 min -4,3 C -9,0 C 16,4 km/h (3 Bft)
03.01.2016 04:15 -1,5 C 22,0 C -0,9 C -2,2 C -4,9 C 0,0 C 81 % 85 % 0 % 1017,0 hPa 0,0 l/m 11,1 km/h (2 Bft) O-NO 67 0 min -4,3 C -9,5 C 10,9 km/h (2 Bft)
03.01.2016 04:20 -1,3 C 22,0 C -0,9 C -2,1 C -5,0 C 0,0 C 81 % 85 % 0 % 1017,0 hPa 0,0 l/m 11,3 km/h (2 Bft) O-NO 67 0 min -4,1 C -9,7 C 17,5 km/h (3 Bft)
03.01.2016 04:25 -1,3 C 22,0 C -0,9 C -2,1 C -4,7 C 0,0 C 81 % 85 % 0 % 1017,0 hPa 0,0 l/m 10,3 km/h (2 Bft) O-NO 67 0 min -4,1 C -9,0 C 13,8 km/h (3 Bft)
03.01.2016 04:30 -1,3 C 22,0 C -0,9 C -2,0 C -4,5 C 0,0 C 81 % 85 % 0 % 1017,0 hPa 0,0 l/m 9,0 km/h (2 Bft) O-SO 112 0 min -4,1 C -8,4 C 11,4 km/h (2 Bft)
03.01.2016 04:35 -1,3 C 22,0 C -0,9 C -2,0 C -4,6 C 0,0 C 81 % 85 % 0 % 1017,0 hPa 0,0 l/m 9,3 km/h (2 Bft) O 90 0 min -4,1 C -8,6 C 15,0 km/h (3 Bft)
03.01.2016 04:40 -1,3 C 22,0 C -0,9 C -2,0 C -4,7 C 0,0 C 81 % 85 % 0 % 1017,0 hPa 0,0 l/m 9,8 km/h (2 Bft) O-SO 112 0 min -4,1 C -8,9 C 13,0 km/h (3 Bft)
03.01.2016 04:45 -1,3 C 22,0 C -0,9 C -2,1 C -4,8 C 0,0 C 80 % 85 % 0 % 1017,0 hPa 0,0 l/m 10,0 km/h (2 Bft) O-NO 67 0 min -4,3 C -9,0 C 9,0 km/h (2 Bft)
03.01.2016 04:50 -1,3 C 22,0 C -0,9 C -2,5 C -4,8 C 0,0 C 80 % 85 % 0 % 1017,0 hPa 0,0 l/m 10,1 km/h (2 Bft) O 90 0 min -4,3 C -9,1 C 11,4 km/h (2 Bft)
03.01.2016 04:55 -1,3 C 22,0 C -0,9 C -2,5 C -4,8 C 0,0 C 80 % 84 % 0 % 1017,0 hPa 0,0 l/m 10,3 km/h (2 Bft) O-NO 67 0 min -4,3 C -9,1 C 13,2 km/h (3 Bft)
03.01.2016 05:00 -1,3 C 22,0 C -0,9 C -2,0 C -4,6 C 0,0 C 80 % 84 % 0 % 1017,0 hPa 0,0 l/m 9,5 km/h (2 Bft) O-NO 67 0 min -4,3 C -8,7 C 9,5 km/h (2 Bft)
03.01.2016 05:05 -1,3 C 22,0 C -0,9 C -2,0 C -4,3 C 0,0 C 80 % 84 % 0 % 1017,0 hPa 0,0 l/m 8,5 km/h (2 Bft) NO 45 0 min -4,3 C -8,0 C 10,3 km/h (2 Bft)
03.01.2016 05:10 -1,3 C 22,0 C -0,9 C -2,0 C -4,4 C 0,0 C 80 % 84 % 0 % 1017,0 hPa 0,0 l/m 8,9 km/h (2 Bft) O-NO 67 0 min -4,3 C -8,2 C 11,9 km/h (2 Bft)
03.01.2016 05:15 -1,3 C 22,0 C -1,0 C -2,0 C -4,7 C 0,0 C 79 % 84 % 0 % 1017,0 hPa 0,0 l/m 9,7 km/h (2 Bft) O-NO 67 0 min -4,5 C -8,8 C 11,7 km/h (2 Bft)
03.01.2016 05:20 -1,3 C 22,0 C -1,0 C -2,0 C -4,6 C 0,0 C 79 % 84 % 0 % 1017,0 hPa 0,0 l/m 9,0 km/h (2 Bft) O-NO 67 0 min -4,5 C -8,5 C 14,2 km/h (3 Bft)
03.01.2016 05:25 -1,3 C 22,0 C -1,0 C -2,0 C -4,4 C 0,0 C 79 % 84 % 0 % 1017,0 hPa 0,0 l/m 8,5 km/h (2 Bft) O-NO 67 0 min -4,5 C -8,1 C 8,4 km/h (2 Bft)
03.01.2016 05:30 -1,3 C 22,0 C -0,9 C -2,2 C -4,1 C 0,0 C 79 % 84 % 0 % 1016,5 hPa 0,0 l/m 7,6 km/h (2 Bft) O-NO 67 0 min -4,5 C -7,4 C 8,2 km/h (2 Bft)
03.01.2016 05:35 -1,3 C 22,0 C -0,9 C -2,2 C -3,9 C 0,0 C 79 % 84 % 0 % 1016,5 hPa 0,0 l/m 6,9 km/h (2 Bft) O-NO 67 0 min -4,5 C -6,9 C 8,7 km/h (2 Bft)
03.01.2016 05:40 -1,3 C 22,0 C -0,9 C -2,2 C -3,9 C 0,0 C 79 % 84 % 0 % 1016,5 hPa 0,0 l/m 6,6 km/h (2 Bft) O 90 0 min -4,5 C -6,8 C 7,1 km/h (2 Bft)
03.01.2016 05:45 -1,3 C 21,9 C -1,1 C -2,2 C -3,9 C 0,0 C 79 % 83 % 0 % 1016,5 hPa 0,0 l/m 6,6 km/h (2 Bft) O-NO 67 0 min -4,5 C -6,8 C 10,1 km/h (2 Bft)
03.01.2016 05:50 -1,4 C 21,9 C -1,1 C -2,2 C -3,8 C 0,0 C 79 % 83 % 0 % 1016,4 hPa 0,0 l/m 6,3 km/h (2 Bft) O-NO 67 0 min -4,6 C -6,5 C 9,2 km/h (2 Bft)
03.01.2016 05:55 -1,3 C 21,9 C -1,1 C -2,1 C -3,7 C 0,0 C 79 % 83 % 0 % 1016,4 hPa 0,0 l/m 6,1 km/h (2 Bft) NO 45 0 min -4,5 C -6,3 C 8,0 km/h (2 Bft)
03.01.2016 06:00 -1,3 C 21,9 C -1,1 C -2,2 C -4,1 C 0,0 C 79 % 83 % 0 % 1016,4 hPa 0,0 l/m 7,2 km/h (2 Bft) O 90 0 min -4,5 C -7,3 C 10,9 km/h (2 Bft)
03.01.2016 06:05 -1,3 C 21,9 C -1,1 C -2,2 C -4,1 C 0,0 C 79 % 83 % 0 % 1016,4 hPa 0,0 l/m 7,2 km/h (2 Bft) NO 45 0 min -4,5 C -7,3 C 9,5 km/h (2 Bft)
03.01.2016 06:10 -1,5 C 21,9 C -1,2 C -2,4 C -4,2 C 0,0 C 79 % 83 % 0 % 1016,8 hPa 0,0 l/m 6,9 km/h (2 Bft) O-NO 67 0 min -4,7 C -7,2 C 6,3 km/h (2 Bft)
03.01.2016 06:15 -1,5 C 21,9 C -1,2 C -2,3 C -3,8 C 0,0 C 79 % 83 % 0 % 1016,8 hPa 0,0 l/m 6,1 km/h (2 Bft) O 90 0 min -4,7 C -6,4 C 10,3 km/h (2 Bft)
03.01.2016 06:20 -1,5 C 21,9 C -1,1 C -2,4 C -4,2 C 0,0 C 79 % 83 % 0 % 1016,8 hPa 0,0 l/m 6,9 km/h (2 Bft) O-SO 112 0 min -4,7 C -7,2 C 6,6 km/h (2 Bft)
03.01.2016 06:25 -1,6 C 21,9 C -1,3 C -2,2 C -4,7 C 0,0 C 79 % 83 % 0 % 1016,8 hPa 0,0 l/m 8,0 km/h (2 Bft) O-NO 67 0 min -4,8 C -8,3 C 9,3 km/h (2 Bft)
03.01.2016 06:30 -1,6 C 21,9 C -1,3 C -2,6 C -4,7 C 0,0 C 79 % 83 % 0 % 1016,3 hPa 0,0 l/m 8,0 km/h (2 Bft) O-NO 67 0 min -4,8 C -8,3 C 5,3 km/h (1 Bft)
03.01.2016 06:35 -1,5 C 21,9 C -1,3 C -2,6 C -4,7 C 0,0 C 79 % 83 % 0 % 1016,3 hPa 0,0 l/m 7,7 km/h (2 Bft) O 90 0 min -4,7 C -8,1 C 9,7 km/h (2 Bft)
03.01.2016 06:41 -1,7 C 21,9 C -1,3 C -2,6 C -4,3 C 0,0 C 79 % 83 % 0 % 1016,3 hPa 0,0 l/m 6,8 km/h (2 Bft) N 0 0 min -4,8 C -7,3 C 11,7 km/h (2 Bft)
03.01.2016 06:50 -1,7 C 21,9 C -1,3 C -2,7 C -4,6 C 0,0 C 79 % 83 % 0 % 1016,2 hPa 0,0 l/m 7,4 km/h (2 Bft) O-NO 67 0 min -4,8 C -7,9 C 11,1 km/h (2 Bft)
03.01.2016 06:55 -1,7 C 21,9 C -1,3 C -2,7 C -4,7 C 0,0 C 79 % 83 % 0 % 1016,2 hPa 0,0 l/m 7,6 km/h (2 Bft) O-NO 67 0 min -4,8 C -8,1 C 8,0 km/h (2 Bft)
03.01.2016 07:00 -1,7 C 21,9 C -1,3 C -2,7 C -4,6 C 0,0 C 79 % 83 % 0 % 1016,2 hPa 0,0 l/m 7,2 km/h (2 Bft) O-NO 67 0 min -4,8 C -7,8 C 10,0 km/h (2 Bft)
03.01.2016 07:05 -1,7 C 21,8 C -1,4 C -2,6 C -4,4 C 0,0 C 79 % 83 % 0 % 1016,2 hPa 0,0 l/m 6,9 km/h (2 Bft) O-NO 67 0 min -4,8 C -7,5 C 6,6 km/h (2 Bft)
03.01.2016 07:10 -1,7 C 21,8 C -1,3 C -2,7 C -4,6 C 0,0 C 79 % 83 % 0 % 1016,2 hPa 0,0 l/m 7,2 km/h (2 Bft) O-NO 67 0 min -4,8 C -7,8 C 11,6 km/h (2 Bft)
03.01.2016 07:15 -1,7 C 21,8 C -1,3 C -2,7 C -4,7 C 0,0 C 79 % 83 % 0 % 1016,2 hPa 0,0 l/m 7,6 km/h (2 Bft) O 90 0 min -4,8 C -8,1 C 10,9 km/h (2 Bft)
03.01.2016 07:20 -1,7 C 21,8 C -1,3 C -2,4 C -4,8 C 0,0 C 79 % 83 % 0 % 1016,2 hPa 0,0 l/m 8,0 km/h (2 Bft) O-SO 112 0 min -4,8 C -8,4 C 7,4 km/h (2 Bft)
03.01.2016 07:25 -1,7 C 21,8 C -1,3 C -2,7 C -4,8 C 0,0 C 79 % 83 % 0 % 1016,2 hPa 0,0 l/m 7,7 km/h (2 Bft) O 90 0 min -4,8 C -8,3 C 10,6 km/h (2 Bft)
03.01.2016 07:30 -1,7 C 21,8 C -1,3 C -2,7 C -4,6 C 0,0 C 79 % 83 % 0 % 1016,3 hPa 0,0 l/m 7,2 km/h (2 Bft) O-NO 67 0 min -4,8 C -7,8 C 8,0 km/h (2 Bft)
03.01.2016 07:35 -1,8 C 21,7 C -1,3 C -2,8 C -4,7 C 0,0 C 79 % 83 % 0 % 1016,3 hPa 0,0 l/m 7,4 km/h (2 Bft) O-NO 67 0 min -4,9 C -8,0 C 10,8 km/h (2 Bft)
03.01.2016 07:40 -1,7 C 21,7 C -1,3 C -2,6 C -4,4 C 0,0 C 79 % 83 % 0 % 1016,3 hPa 0,0 l/m 6,8 km/h (2 Bft) O 90 0 min -4,8 C -7,4 C 8,0 km/h (2 Bft)
03.01.2016 07:45 -1,7 C 21,7 C -1,3 C -2,6 C -4,3 C 0,0 C 79 % 83 % 0 % 1016,3 hPa 0,0 l/m 6,6 km/h (2 Bft) NO 45 0 min -4,8 C -7,2 C 5,6 km/h (1 Bft)
03.01.2016 07:50 -1,7 C 21,7 C -1,3 C -2,4 C -3,9 C 0,0 C 79 % 83 % 0 % 1016,3 hPa 0,0 l/m 5,3 km/h (1 Bft) O-NO 67 0 min -4,8 C -6,2 C 4,0 km/h (1 Bft)
03.01.2016 07:55 -1,9 C 21,7 C -1,3 C -2,3 C -3,2 C 0,0 C 79 % 83 % 0 % 1016,3 hPa 0,0 l/m 4,0 km/h (1 Bft) O-NO 67 0 min -5,0 C -3,2 C 4,3 km/h (1 Bft)
03.01.2016 08:00 -1,9 C 21,7 C -1,3 C -2,3 C -3,2 C 0,0 C 79 % 83 % 0 % 1016,3 hPa 0,0 l/m 4,0 km/h (1 Bft) O-SO 112 0 min -5,0 C -3,2 C 3,1 km/h (1 Bft)
03.01.2016 08:05 -1,9 C 21,7 C -1,3 C -2,3 C -3,1 C 0,0 C 79 % 83 % 0 % 1016,3 hPa 0,0 l/m 3,9 km/h (1 Bft) O-NO 67 0 min -5,0 C -3,1 C 8,5 km/h (2 Bft)
03.01.2016 08:10 -1,9 C 21,7 C -1,3 C -2,1 C -2,4 C 0,0 C 80 % 84 % 0 % 1015,7 hPa 0,0 l/m 2,9 km/h (1 Bft) O-NO 67 0 min -4,9 C -2,4 C 2,9 km/h (1 Bft)
03.01.2016 08:15 -1,9 C 21,7 C -1,3 C -2,2 C -2,7 C 0,0 C 79 % 83 % 0 % 1015,7 hPa 0,0 l/m 3,2 km/h (1 Bft) O-NO 67 0 min -5,0 C -2,7 C 0,0 km/h (0 Bft)
03.01.2016 08:20 -1,7 C 21,6 C -1,3 C -2,1 C -2,9 C 0,0 C 79 % 83 % 0 % 1015,7 hPa 0,0 l/m 3,5 km/h (1 Bft) O 90 0 min -4,8 C -2,9 C 10,5 km/h (2 Bft)
03.01.2016 08:25 -1,7 C 21,6 C -1,3 C -2,1 C -2,8 C 0,0 C 79 % 83 % 0 % 1015,7 hPa 0,0 l/m 3,4 km/h (1 Bft) O-NO 67 0 min -4,8 C -2,8 C 4,8 km/h (1 Bft)
03.01.2016 08:30 -1,8 C 21,6 C -1,3 C -2,3 C -3,4 C 0,0 C 79 % 83 % 0 % 1015,6 hPa 0,0 l/m 4,3 km/h (1 Bft) O 90 0 min -4,9 C -3,4 C 2,9 km/h (1 Bft)
03.01.2016 08:35 -1,8 C 21,6 C -1,3 C -2,4 C -3,7 C 0,0 C 78 % 83 % 0 % 1015,6 hPa 0,0 l/m 4,8 km/h (1 Bft) O 90 0 min -5,1 C -5,7 C 7,1 km/h (2 Bft)
03.01.2016 08:40 -1,8 C 21,6 C -1,5 C -2,5 C -3,9 C 0,0 C 78 % 82 % 0 % 1015,6 hPa 0,0 l/m 5,3 km/h (1 Bft) NO 45 0 min -5,1 C -6,2 C 5,5 km/h (1 Bft)
03.01.2016 08:45 -1,7 C 21,6 C -1,3 C -2,4 C -3,9 C 0,0 C 78 % 82 % 0 % 1015,6 hPa 0,0 l/m 5,3 km/h (1 Bft) O-NO 67 0 min -5,0 C -6,2 C 9,2 km/h (2 Bft)
03.01.2016 08:50 -1,8 C 21,6 C -1,5 C -2,6 C -4,2 C 0,0 C 78 % 82 % 0 % 1015,7 hPa 0,0 l/m 6,0 km/h (2 Bft) O 90 0 min -5,1 C -6,9 C 4,3 km/h (1 Bft)
03.01.2016 08:55 -1,7 C 21,6 C -1,5 C -2,4 C -3,9 C 0,0 C 78 % 82 % 0 % 1015,7 hPa 0,0 l/m 5,5 km/h (1 Bft) O-NO 67 0 min -5,0 C -6,3 C 7,7 km/h (2 Bft)
03.01.2016 09:00 -1,7 C 21,6 C -1,3 C -2,3 C -3,5 C 0,0 C 78 % 82 % 0 % 1015,7 hPa 0,0 l/m 4,8 km/h (1 Bft) O-NO 67 0 min -5,0 C -5,5 C 6,4 km/h (2 Bft)
03.01.2016 09:05 -1,7 C 21,6 C -1,3 C -2,4 C -3,9 C 0,0 C 78 % 82 % 0 % 1015,7 hPa 0,0 l/m 5,6 km/h (1 Bft) O-NO 67 0 min -5,0 C -6,3 C 6,4 km/h (2 Bft)
03.01.2016 09:10 -1,9 C 21,6 C -1,4 C -2,7 C -4,3 C 0,0 C 78 % 83 % 0 % 1015,0 hPa 0,0 l/m 6,4 km/h (2 Bft) O 90 0 min -5,2 C -7,1 C 8,9 km/h (2 Bft)
03.01.2016 09:15 -1,9 C 21,6 C -1,3 C -2,7 C -4,4 C 0,0 C 79 % 83 % 0 % 1015,0 hPa 0,0 l/m 6,9 km/h (2 Bft) O-NO 67 0 min -5,0 C -7,5 C 9,3 km/h (2 Bft)
03.01.2016 09:20 -1,9 C 21,6 C -1,3 C -2,5 C -4,8 C 0,0 C 78 % 82 % 0 % 1015,0 hPa 0,0 l/m 7,7 km/h (2 Bft) O-NO 67 0 min -5,2 C -8,3 C 11,6 km/h (2 Bft)
03.01.2016 09:25 -1,9 C 21,6 C -1,5 C -2,6 C -5,0 C 0,0 C 78 % 82 % 0 % 1015,0 hPa 0,0 l/m 8,5 km/h (2 Bft) O 90 0 min -5,2 C -8,8 C 10,6 km/h (2 Bft)
03.01.2016 09:30 -2,0 C 21,6 C -1,5 C -2,7 C -5,3 C 0,0 C 78 % 82 % 0 % 1015,2 hPa 0,0 l/m 9,3 km/h (2 Bft) O 90 0 min -5,3 C -9,4 C 10,0 km/h (2 Bft)
03.01.2016 09:35 -2,0 C 21,6 C -1,5 C -2,7 C -5,2 C 0,0 C 79 % 82 % 0 % 1015,2 hPa 0,0 l/m 8,9 km/h (2 Bft) O-NO 67 0 min -5,1 C -9,2 C 10,8 km/h (2 Bft)
03.01.2016 09:41 -1,9 C 21,6 C -1,5 C -2,6 C -5,0 C 0,0 C 79 % 82 % 0 % 1015,2 hPa 0,0 l/m 8,2 km/h (2 Bft) N 0 0 min -5,0 C -8,7 C 10,8 km/h (2 Bft)
03.01.2016 09:50 -1,9 C 21,6 C -1,5 C -2,9 C -5,0 C 0,0 C 79 % 82 % 0 % 1015,7 hPa 0,0 l/m 8,2 km/h (2 Bft) O-NO 67 0 min -5,0 C -8,7 C 8,5 km/h (2 Bft)
03.01.2016 09:55 -2,0 C 21,6 C -1,3 C -3,0 C -5,0 C 0,0 C 78 % 82 % 0 % 1015,7 hPa 0,0 l/m 8,2 km/h (2 Bft) O-NO 67 0 min -5,3 C -8,7 C 9,7 km/h (2 Bft)
03.01.2016 10:00 -2,1 C 21,6 C -1,3 C -3,0 C -4,8 C 0,0 C 79 % 82 % 0 % 1015,7 hPa 0,0 l/m 7,6 km/h (2 Bft) O-NO 67 0 min -5,2 C -8,2 C 8,0 km/h (2 Bft)
03.01.2016 10:05 -2,1 C 21,6 C -1,3 C -2,9 C -4,5 C 0,0 C 79 % 82 % 0 % 1015,7 hPa 0,0 l/m 7,1 km/h (2 Bft) O-NO 67 0 min -5,2 C -7,7 C 14,0 km/h (3 Bft)
03.01.2016 10:10 -2,1 C 21,6 C -1,3 C -2,6 C -4,8 C 0,0 C 79 % 82 % 0 % 1015,5 hPa 0,0 l/m 8,0 km/h (2 Bft) O-NO 67 0 min -5,2 C -8,4 C 10,0 km/h (2 Bft)
03.01.2016 10:15 -2,1 C 21,6 C -1,3 C -2,7 C -5,1 C 0,0 C 79 % 82 % 0 % 1015,5 hPa 0,0 l/m 8,9 km/h (2 Bft) O-NO 67 0 min -5,2 C -9,0 C 12,4 km/h (3 Bft)
03.01.2016 10:20 -2,1 C 21,6 C -1,3 C -3,1 C -5,1 C 0,0 C 79 % 82 % 0 % 1015,5 hPa 0,0 l/m 8,9 km/h (2 Bft) O-SO 112 0 min -5,2 C -9,0 C 9,8 km/h (2 Bft)
03.01.2016 10:25 -2,1 C 21,6 C -1,3 C -2,7 C -4,9 C 0,0 C 79 % 82 % 0 % 1015,5 hPa 0,0 l/m 8,4 km/h (2 Bft) O-NO 67 0 min -5,2 C -8,6 C 7,7 km/h (2 Bft)
03.01.2016 10:30 -2,1 C 21,6 C -1,3 C -2,9 C -4,6 C 0,0 C 79 % 82 % 0 % 1015,5 hPa 0,0 l/m 7,2 km/h (2 Bft) O-NO 67 0 min -5,2 C -7,8 C 8,9 km/h (2 Bft)
03.01.2016 10:35 -2,1 C 21,6 C -1,3 C -2,9 C -4,6 C 0,0 C 79 % 82 % 0 % 1015,5 hPa 0,0 l/m 7,2 km/h (2 Bft) O-NO 67 0 min -5,2 C -7,8 C 8,7 km/h (2 Bft)
03.01.2016 10:40 -1,9 C 21,5 C -1,3 C -2,8 C -4,5 C 0,0 C 79 % 82 % 0 % 1015,5 hPa 0,0 l/m 7,1 km/h (2 Bft) O-NO 67 0 min -5,0 C -7,7 C 9,0 km/h (2 Bft)
03.01.2016 10:45 -2,0 C 21,5 C -1,1 C -2,8 C -4,5 C 0,0 C 79 % 82 % 0 % 1015,5 hPa 0,0 l/m 7,6 km/h (2 Bft) O 90 0 min -5,1 C -7,9 C 11,3 km/h (2 Bft)
03.01.2016 10:50 -2,0 C 21,6 C -1,1 C -2,5 C -4,8 C 0,0 C 79 % 81 % 0 % 1015,5 hPa 0,0 l/m 9,3 km/h (2 Bft) O-NO 67 0 min -5,1 C -8,8 C 10,3 km/h (2 Bft)
03.01.2016 10:55 -1,9 C 21,5 C -1,1 C -2,4 C -4,6 C 0,0 C 79 % 81 % 0 % 1015,5 hPa 0,0 l/m 9,3 km/h (2 Bft) NO 45 0 min -5,0 C -8,6 C 10,9 km/h (2 Bft)
03.01.2016 11:00 -1,9 C 21,5 C -1,2 C -2,5 C -4,9 C 0,0 C 78 % 81 % 0 % 1015,5 hPa 0,0 l/m 9,8 km/h (2 Bft) O-NO 67 0 min -5,2 C -9,1 C 12,4 km/h (3 Bft)
03.01.2016 11:05 -1,9 C 21,5 C -1,2 C -2,5 C -4,8 C 0,0 C 78 % 81 % 0 % 1015,5 hPa 0,0 l/m 9,3 km/h (2 Bft) O-NO 67 0 min -5,2 C -8,8 C 6,0 km/h (2 Bft)
03.01.2016 11:10 -1,9 C 21,5 C -1,1 C -2,6 C -4,1 C 0,0 C 79 % 81 % 0 % 1014,9 hPa 0,0 l/m 7,2 km/h (2 Bft) NO 45 0 min -5,0 C -7,3 C 9,2 km/h (2 Bft)
03.01.2016 11:15 -1,9 C 21,5 C -0,9 C -2,4 C -3,5 C 0,0 C 78 % 81 % 0 % 1014,9 hPa 0,0 l/m 6,0 km/h (2 Bft) O-NO 67 0 min -5,2 C -6,0 C 8,5 km/h (2 Bft)
03.01.2016 11:20 -1,8 C 21,6 C -0,8 C -2,3 C -3,3 C 0,0 C 78 % 81 % 0 % 1014,9 hPa 0,0 l/m 6,3 km/h (2 Bft) O-NO 67 0 min -5,1 C -6,0 C 6,6 km/h (2 Bft)
03.01.2016 11:25 -1,7 C 21,6 C -0,5 C -2,2 C -3,1 C 0,0 C 79 % 81 % 0 % 1014,9 hPa 0,0 l/m 6,3 km/h (2 Bft) O-NO 67 0 min -4,8 C -5,7 C 5,3 km/h (1 Bft)
03.01.2016 11:30 -1,6 C 21,6 C -0,5 C -1,7 C -1,8 C 0,0 C 78 % 80 % 0 % 1014,9 hPa 0,0 l/m 6,1 km/h (2 Bft) O 90 0 min -4,9 C -4,1 C 8,0 km/h (2 Bft)
03.01.2016 11:35 -1,5 C 21,6 C -0,5 C -1,7 C -2,0 C 0,0 C 77 % 80 % 0 % 1014,9 hPa 0,0 l/m 6,8 km/h (2 Bft) O-NO 67 0 min -5,0 C -4,7 C 4,2 km/h (1 Bft)
03.01.2016 11:40 -1,3 C 21,6 C -0,5 C -1,5 C -1,9 C 0,0 C 78 % 80 % 0 % 1014,9 hPa 0,0 l/m 6,1 km/h (2 Bft) O-SO 112 0 min -4,6 C -4,3 C 5,3 km/h (1 Bft)
03.01.2016 11:45 -1,3 C 21,6 C -0,3 C -1,4 C -1,6 C 0,0 C 78 % 80 % 0 % 1014,9 hPa 0,0 l/m 5,3 km/h (1 Bft) O-NO 67 0 min -4,6 C -3,6 C 6,4 km/h (2 Bft)
03.01.2016 11:50 -1,3 C 21,5 C -0,1 C -0,3 C -0,3 C 1,0 C 78 % 79 % 26 % 1014,7 hPa 0,0 l/m 3,7 km/h (1 Bft) S-SO 157 0 min -4,6 C -0,3 C 0,0 km/h (0 Bft)
03.01.2016 11:55 -1,1 C 21,5 C -0,1 C 1,2 C 1,2 C 2,3 C 78 % 79 % 61 % 1014,7 hPa 0,0 l/m 2,4 km/h (1 Bft) O-NO 67 0 min -4,4 C 1,2 C 2,1 km/h (1 Bft)
03.01.2016 12:00 -0,9 C 21,5 C -0,1 C 1,2 C 1,2 C 2,1 C 77 % 77 % 55 % 1014,7 hPa 0,0 l/m 2,3 km/h (1 Bft) NW 315 0 min -4,4 C 1,2 C 1,6 km/h (1 Bft)
03.01.2016 12:05 -0,9 C 21,5 C -0,2 C 1,2 C 1,2 C 2,1 C 77 % 77 % 55 % 1014,7 hPa 0,0 l/m 2,6 km/h (1 Bft) O-SO 112 0 min -4,4 C 1,2 C 5,0 km/h (1 Bft)
03.01.2016 12:10 -0,9 C 21,5 C -0,1 C -0,8 C -0,8 C 0,1 C 76 % 78 % 3 % 1014,7 hPa 0,0 l/m 4,5 km/h (1 Bft) O-NO 67 0 min -4,6 C -0,8 C 12,4 km/h (3 Bft)
03.01.2016 12:15 -0,9 C 21,5 C -0,1 C -1,0 C -1,2 C 0,0 C 76 % 78 % 0 % 1014,7 hPa 0,0 l/m 4,7 km/h (1 Bft) O-NO 67 0 min -4,6 C -2,8 C 2,6 km/h (1 Bft)
03.01.2016 12:20 -0,9 C 21,6 C -0,1 C -0,9 C -1,0 C 0,0 C 76 % 77 % 0 % 1014,7 hPa 0,0 l/m 4,0 km/h (1 Bft) NO 45 0 min -4,6 C -1,0 C 6,4 km/h (2 Bft)
03.01.2016 12:25 -0,9 C 21,6 C -0,2 C -0,9 C -1,0 C 0,0 C 76 % 78 % 0 % 1014,7 hPa 0,0 l/m 4,0 km/h (1 Bft) O-NO 67 0 min -4,6 C -1,0 C 5,0 km/h (1 Bft)
03.01.2016 12:30 -0,9 C 21,6 C -0,1 C -1,0 C -1,3 C 0,0 C 76 % 78 % 0 % 1013,5 hPa 0,0 l/m 4,3 km/h (1 Bft) O 90 0 min -4,6 C -1,3 C 6,3 km/h (2 Bft)
03.01.2016 12:35 -1,1 C 21,6 C -0,1 C -1,3 C -1,8 C 0,0 C 76 % 78 % 0 % 1013,5 hPa 0,0 l/m 5,6 km/h (1 Bft) O 90 0 min -4,8 C -3,9 C 5,3 km/h (1 Bft)
03.01.2016 12:41 -0,9 C 21,5 C -0,2 C -1,2 C -1,8 C 0,0 C 76 % 77 % 0 % 1013,5 hPa 0,0 l/m 6,1 km/h (2 Bft) N 0 0 min -4,6 C -4,1 C 14,3 km/h (3 Bft)
03.01.2016 12:50 -0,9 C 21,5 C -0,3 C -1,0 C -2,4 C 0,0 C 75 % 78 % 0 % 1012,9 hPa 0,0 l/m 8,0 km/h (2 Bft) O 90 0 min -4,8 C -5,6 C 9,8 km/h (2 Bft)
03.01.2016 12:55 -1,1 C 21,5 C -0,4 C -1,5 C -2,3 C 0,0 C 75 % 78 % 0 % 1012,9 hPa 0,0 l/m 7,6 km/h (2 Bft) O-NO 67 0 min -5,0 C -5,3 C 9,0 km/h (2 Bft)
03.01.2016 13:00 -1,2 C 21,6 C -0,6 C -1,8 C -2,9 C 0,0 C 75 % 77 % 0 % 1012,9 hPa 0,0 l/m 7,6 km/h (2 Bft) O 90 0 min -5,0 C -6,0 C 7,7 km/h (2 Bft)
03.01.2016 13:05 -1,3 C 21,6 C -0,5 C -1,7 C -3,6 C 0,0 C 75 % 78 % 0 % 1012,9 hPa 0,0 l/m 7,7 km/h (2 Bft) O 90 0 min -5,1 C -6,9 C 11,7 km/h (2 Bft)
03.01.2016 13:10 -1,3 C 21,6 C -0,6 C -1,9 C -3,2 C 0,0 C 76 % 78 % 0 % 1012,8 hPa 0,0 l/m 6,8 km/h (2 Bft) NO 45 0 min -5,0 C -6,0 C 6,1 km/h (2 Bft)
03.01.2016 13:15 -1,3 C 21,6 C -0,5 C -1,7 C -2,5 C 0,0 C 76 % 78 % 0 % 1012,8 hPa 0,0 l/m 5,1 km/h (1 Bft) O-NO 67 0 min -5,0 C -4,5 C 3,4 km/h (1 Bft)
03.01.2016 13:20 -1,1 C 21,6 C -0,3 C -0,9 C -0,9 C 0,2 C 76 % 78 % 5 % 1012,8 hPa 0,0 l/m 3,9 km/h (1 Bft) SO 135 0 min -4,8 C -0,9 C 4,2 km/h (1 Bft)
03.01.2016 13:25 -1,2 C 21,6 C -0,3 C -1,1 C -1,1 C 0,1 C 76 % 78 % 3 % 1012,8 hPa 0,0 l/m 4,5 km/h (1 Bft) O-NO 67 0 min -4,9 C -1,1 C 10,8 km/h (2 Bft)
03.01.2016 13:30 -1,2 C 21,6 C -0,5 C -1,5 C -2,0 C 0,0 C 75 % 78 % 0 % 1012,7 hPa 0,0 l/m 6,0 km/h (2 Bft) O-SO 112 0 min -5,0 C -4,3 C 9,0 km/h (2 Bft)
03.01.2016 13:35 -1,1 C 21,6 C -0,5 C -1,5 C -2,4 C 0,0 C 75 % 78 % 0 % 1012,7 hPa 0,0 l/m 6,3 km/h (2 Bft) O-NO 67 0 min -5,0 C -4,9 C 10,0 km/h (2 Bft)
03.01.2016 13:40 -1,1 C 21,6 C -0,5 C -1,3 C -1,8 C 0,0 C 75 % 78 % 0 % 1012,7 hPa 0,0 l/m 5,5 km/h (1 Bft) O-NO 67 0 min -5,0 C -3,9 C 4,3 km/h (1 Bft)
03.01.2016 13:45 -1,2 C 21,6 C -0,3 C -1,3 C -1,6 C 0,0 C 75 % 77 % 0 % 1012,7 hPa 0,0 l/m 5,3 km/h (1 Bft) O-NO 67 0 min -5,0 C -3,6 C 4,2 km/h (1 Bft)
03.01.2016 13:50 -1,2 C 21,6 C -0,5 C -1,4 C -1,8 C 0,0 C 75 % 78 % 0 % 1012,8 hPa 0,0 l/m 5,0 km/h (1 Bft) O-SO 112 0 min -5,0 C -3,6 C 6,1 km/h (2 Bft)
03.01.2016 13:55 -1,2 C 21,6 C -0,5 C -1,3 C -1,6 C 0,0 C 75 % 77 % 0 % 1012,8 hPa 0,0 l/m 4,5 km/h (1 Bft) NO 45 0 min -5,0 C -1,6 C 7,9 km/h (2 Bft)
03.01.2016 14:00 -1,2 C 21,6 C -0,5 C -1,2 C -1,3 C 0,0 C 75 % 77 % 0 % 1012,8 hPa 0,0 l/m 3,9 km/h (1 Bft) O-NO 67 0 min -5,0 C -1,3 C 3,1 km/h (1 Bft)
03.01.2016 14:05 -1,2 C 21,6 C -0,6 C -1,3 C -1,4 C 0,0 C 75 % 77 % 0 % 1012,8 hPa 0,0 l/m 3,9 km/h (1 Bft) SO 135 0 min -5,0 C -1,4 C 3,2 km/h (1 Bft)
03.01.2016 14:10 -1,2 C 21,6 C -0,5 C -1,2 C -1,3 C 0,0 C 75 % 77 % 0 % 1012,7 hPa 0,0 l/m 3,2 km/h (1 Bft) O 90 0 min -5,0 C -1,3 C 5,0 km/h (1 Bft)
03.01.2016 14:15 -1,2 C 21,6 C -0,7 C -1,1 C -1,1 C 0,1 C 75 % 77 % 3 % 1012,7 hPa 0,0 l/m 2,7 km/h (1 Bft) O-SO 112 0 min -5,0 C -1,1 C 2,7 km/h (1 Bft)
03.01.2016 14:20 -1,1 C 21,6 C -0,8 C -1,2 C -1,3 C 0,0 C 75 % 78 % 0 % 1012,7 hPa 0,0 l/m 2,9 km/h (1 Bft) S 180 0 min -5,0 C -1,3 C 0,0 km/h (0 Bft)
03.01.2016 14:25 -1,1 C 21,6 C -0,8 C -1,3 C -1,7 C 0,0 C 75 % 78 % 0 % 1012,7 hPa 0,0 l/m 3,2 km/h (1 Bft) O-NO 67 0 min -5,0 C -1,7 C 7,1 km/h (2 Bft)
03.01.2016 14:30 -1,3 C 21,6 C -0,9 C -1,7 C -2,5 C 0,0 C 75 % 78 % 0 % 1012,4 hPa 0,0 l/m 4,0 km/h (1 Bft) O-NO 67 0 min -5,1 C -2,5 C 2,4 km/h (1 Bft)
03.01.2016 14:35 -1,3 C 21,6 C -0,9 C -1,9 C -3,0 C 0,0 C 75 % 78 % 0 % 1012,4 hPa 0,0 l/m 4,7 km/h (1 Bft) O 90 0 min -5,1 C -4,8 C 5,0 km/h (1 Bft)
03.01.2016 14:40 -1,3 C 21,6 C -1,1 C -1,6 C -2,2 C 0,0 C 75 % 78 % 0 % 1012,4 hPa 0,0 l/m 3,4 km/h (1 Bft) O 90 0 min -5,1 C -2,2 C 2,9 km/h (1 Bft)
03.01.2016 14:45 -1,3 C 21,6 C -1,1 C -1,6 C -2,1 C 0,0 C 76 % 79 % 0 % 1012,4 hPa 0,0 l/m 3,2 km/h (1 Bft) O-NO 67 0 min -5,0 C -2,1 C 3,1 km/h (1 Bft)
03.01.2016 14:50 -1,3 C 21,6 C -1,1 C -1,8 C -2,7 C 0,0 C 76 % 79 % 0 % 1011,4 hPa 0,0 l/m 4,0 km/h (1 Bft) O 90 0 min -5,0 C -2,7 C 6,0 km/h (2 Bft)
03.01.2016 14:55 -1,3 C 21,6 C -1,1 C -1,8 C -2,9 C 0,0 C 76 % 80 % 0 % 1011,4 hPa 0,0 l/m 4,5 km/h (1 Bft) O-SO 112 0 min -5,0 C -2,9 C 2,7 km/h (1 Bft)
03.01.2016 15:00 -1,3 C 21,6 C -1,3 C -2,1 C -3,6 C 0,0 C 76 % 79 % 0 % 1011,4 hPa 0,0 l/m 5,3 km/h (1 Bft) O-NO 67 0 min -5,0 C -5,8 C 9,7 km/h (2 Bft)
03.01.2016 15:05 -1,5 C 21,6 C -1,3 C -2,4 C -4,1 C 0,0 C 76 % 80 % 0 % 1011,4 hPa 0,0 l/m 6,1 km/h (2 Bft) O-NO 67 0 min -5,2 C -6,8 C 8,5 km/h (2 Bft)
03.01.2016 15:10 -1,6 C 21,6 C -1,5 C -2,5 C -4,4 C 0,0 C 76 % 80 % 0 % 1011,6 hPa 0,0 l/m 6,4 km/h (2 Bft) O-NO 67 0 min -5,3 C -7,3 C 5,8 km/h (2 Bft)
03.01.2016 15:15 -1,5 C 21,6 C -1,5 C -2,3 C -3,8 C 0,0 C 76 % 81 % 0 % 1011,6 hPa 0,0 l/m 4,7 km/h (1 Bft) O-NO 67 0 min -5,2 C -5,7 C 3,2 km/h (1 Bft)
03.01.2016 15:20 -1,7 C 21,6 C -1,6 C -2,2 C -3,2 C 0,0 C 77 % 80 % 0 % 1011,6 hPa 0,0 l/m 3,7 km/h (1 Bft) O 90 0 min -5,2 C -3,2 C 0,0 km/h (0 Bft)
03.01.2016 15:25 -1,7 C 21,6 C -1,6 C -2,4 C -3,7 C 0,0 C 76 % 80 % 0 % 1011,6 hPa 0,0 l/m 4,2 km/h (1 Bft) O-NO 67 0 min -5,4 C -3,7 C 6,1 km/h (2 Bft)
03.01.2016 15:30 -1,7 C 21,6 C -1,7 C -2,2 C -3,1 C 0,0 C 76 % 81 % 0 % 1011,3 hPa 0,0 l/m 3,2 km/h (1 Bft) S-SO 157 0 min -5,4 C -3,1 C 3,1 km/h (1 Bft)
03.01.2016 15:35 -1,7 C 21,6 C -1,7 C -2,0 C -2,7 C 0,0 C 76 % 80 % 0 % 1011,3 hPa 0,0 l/m 2,7 km/h (1 Bft) O-SO 112 0 min -5,4 C -2,7 C 0,0 km/h (0 Bft)
03.01.2016 15:41 -1,7 C 21,6 C -1,7 C -2,1 C -3,0 C 0,0 C 76 % 81 % 0 % 1011,3 hPa 0,0 l/m 2,9 km/h (1 Bft) N 0 0 min -5,4 C -3,0 C 5,0 km/h (1 Bft)
03.01.2016 15:50 -1,7 C 21,6 C -1,7 C -2,6 C -4,3 C 0,0 C 76 % 81 % 0 % 1011,3 hPa 0,0 l/m 4,7 km/h (1 Bft) O 90 0 min -5,4 C -6,3 C 4,7 km/h (1 Bft)
03.01.2016 15:55 -1,9 C 21,6 C -1,9 C -2,8 C -4,7 C 0,0 C 76 % 80 % 0 % 1011,3 hPa 0,0 l/m 5,5 km/h (1 Bft) O-NO 67 0 min -5,6 C -7,2 C 8,5 km/h (2 Bft)
03.01.2016 16:00 -2,0 C 21,6 C -1,9 C -3,0 C -4,9 C 0,0 C 76 % 81 % 0 % 1011,3 hPa 0,0 l/m 6,0 km/h (2 Bft) O-NO 67 0 min -5,6 C -7,7 C 4,8 km/h (1 Bft)
03.01.2016 16:05 -2,0 C 21,6 C -1,9 C -3,0 C -4,9 C 0,0 C 76 % 81 % 0 % 1011,3 hPa 0,0 l/m 6,0 km/h (2 Bft) O 90 0 min -5,6 C -7,7 C 5,1 km/h (1 Bft)
03.01.2016 16:10 -2,1 C 21,6 C -1,9 C -3,0 C -4,8 C 0,0 C 77 % 81 % 0 % 1010,8 hPa 0,0 l/m 5,5 km/h (1 Bft) NO 45 0 min -5,6 C -7,3 C 11,1 km/h (2 Bft)
03.01.2016 16:15 -2,1 C 21,6 C -2,0 C -3,1 C -5,1 C 0,0 C 77 % 80 % 0 % 1010,8 hPa 0,0 l/m 5,8 km/h (2 Bft) S-SO 157 0 min -5,6 C -7,8 C 9,7 km/h (2 Bft)
03.01.2016 16:20 -2,1 C 21,6 C -2,1 C -3,0 C -4,8 C 0,0 C 77 % 81 % 0 % 1010,8 hPa 0,0 l/m 5,1 km/h (1 Bft) O-SO 112 0 min -5,6 C -7,1 C 6,1 km/h (2 Bft)
03.01.2016 16:25 -2,1 C 21,6 C -2,2 C -3,0 C -4,7 C 0,0 C 77 % 81 % 0 % 1010,8 hPa 0,0 l/m 5,0 km/h (1 Bft) O 90 0 min -5,6 C -6,9 C 6,6 km/h (2 Bft)
03.01.2016 16:30 -2,3 C 21,6 C -2,3 C -3,1 C -4,8 C 0,0 C 77 % 81 % 0 % 1011,2 hPa 0,0 l/m 4,8 km/h (1 Bft) O-SO 112 0 min -5,8 C -6,9 C 2,9 km/h (1 Bft)
03.01.2016 16:35 -2,3 C 21,6 C -2,3 C -3,0 C -4,3 C 0,0 C 77 % 81 % 0 % 1011,2 hPa 0,0 l/m 4,0 km/h (1 Bft) NO 45 0 min -5,8 C -4,3 C 3,7 km/h (1 Bft)
03.01.2016 16:40 -2,4 C 21,6 C -2,1 C -2,7 C -3,4 C 0,0 C 77 % 82 % 0 % 1011,2 hPa 0,0 l/m 2,7 km/h (1 Bft) O-NO 67 0 min -5,9 C -3,4 C 6,1 km/h (2 Bft)
03.01.2016 16:45 -2,4 C 21,6 C -2,3 C -2,8 C -3,6 C 0,0 C 77 % 82 % 0 % 1011,2 hPa 0,0 l/m 2,9 km/h (1 Bft) O 90 0 min -5,9 C -3,6 C 6,1 km/h (2 Bft)
03.01.2016 16:50 -2,5 C 21,6 C -2,3 C -3,0 C -3,9 C 0,0 C 77 % 82 % 0 % 1011,1 hPa 0,0 l/m 3,2 km/h (1 Bft) O-NO 67 0 min -6,0 C -3,9 C 6,1 km/h (2 Bft)
03.01.2016 16:55 -2,5 C 21,6 C -2,3 C -2,8 C -3,4 C 0,0 C 77 % 82 % 0 % 1011,1 hPa 0,0 l/m 2,7 km/h (1 Bft) NO 45 0 min -6,0 C -3,4 C 2,1 km/h (1 Bft)
03.01.2016 17:00 -2,5 C 21,6 C -2,3 C -2,9 C -3,6 C 0,0 C 77 % 82 % 0 % 1011,1 hPa 0,0 l/m 2,7 km/h (1 Bft) O-SO 112 0 min -6,0 C -3,6 C 4,0 km/h (1 Bft)
03.01.2016 17:05 -2,5 C 21,6 C -2,3 C -2,8 C -3,4 C 0,0 C 77 % 82 % 0 % 1011,1 hPa 0,0 l/m 2,6 km/h (1 Bft) SO 135 0 min -6,0 C -3,4 C 4,7 km/h (1 Bft)
03.01.2016 17:10 -2,5 C 21,6 C -2,3 C -2,9 C -3,7 C 0,0 C 77 % 81 % 0 % 1011,1 hPa 0,0 l/m 2,9 km/h (1 Bft) O 90 0 min -6,0 C -3,7 C 4,0 km/h (1 Bft)
03.01.2016 17:15 -2,5 C 21,6 C -2,3 C -3,1 C -4,2 C 0,0 C 78 % 82 % 0 % 1011,1 hPa 0,0 l/m 3,9 km/h (1 Bft) O-NO 67 0 min -5,8 C -4,2 C 3,9 km/h (1 Bft)
03.01.2016 17:20 -2,5 C 21,6 C -2,3 C -3,2 C -4,5 C 0,0 C 78 % 82 % 0 % 1011,1 hPa 0,0 l/m 4,3 km/h (1 Bft) S-SO 157 0 min -5,8 C -4,5 C 8,4 km/h (2 Bft)
03.01.2016 17:25 -2,5 C 21,6 C -2,3 C -3,2 C -4,6 C 0,0 C 78 % 82 % 0 % 1011,1 hPa 0,0 l/m 4,5 km/h (1 Bft) O-NO 67 0 min -5,8 C -4,6 C 4,3 km/h (1 Bft)
03.01.2016 17:30 -2,5 C 21,6 C -2,3 C -3,4 C -5,1 C 0,0 C 77 % 82 % 0 % 1010,1 hPa 0,0 l/m 5,6 km/h (1 Bft) O 90 0 min -6,0 C -7,7 C 10,9 km/h (2 Bft)
03.01.2016 17:35 -2,5 C 21,6 C -2,3 C -3,3 C -4,8 C 0,0 C 78 % 82 % 0 % 1010,1 hPa 0,0 l/m 5,1 km/h (1 Bft) O 90 0 min -5,8 C -7,1 C 4,3 km/h (1 Bft)
03.01.2016 17:40 -2,5 C 21,6 C -2,3 C -3,2 C -4,6 C 0,0 C 77 % 82 % 0 % 1010,1 hPa 0,0 l/m 4,7 km/h (1 Bft) O 90 0 min -6,0 C -6,6 C 5,8 km/h (2 Bft)
03.01.2016 17:45 -2,5 C 21,6 C -2,3 C -3,3 C -4,8 C 0,0 C 78 % 82 % 0 % 1010,1 hPa 0,0 l/m 5,1 km/h (1 Bft) O-SO 112 0 min -5,8 C -7,1 C 5,8 km/h (2 Bft)
03.01.2016 17:50 -2,5 C 21,6 C -2,3 C -3,3 C -4,8 C 0,0 C 78 % 82 % 0 % 1009,9 hPa 0,0 l/m 5,1 km/h (1 Bft) O-SO 112 0 min -5,8 C -7,1 C 2,9 km/h (1 Bft)
03.01.2016 17:55 -2,6 C 21,6 C -2,3 C -3,4 C -4,9 C 0,0 C 78 % 82 % 0 % 1009,9 hPa 0,0 l/m 5,0 km/h (1 Bft) O-NO 67 0 min -5,9 C -7,1 C 10,9 km/h (2 Bft)
03.01.2016 18:00 -2,5 C 21,6 C -2,3 C -3,2 C -4,7 C 0,0 C 78 % 81 % 0 % 1009,9 hPa 0,0 l/m 5,0 km/h (1 Bft) O-NO 67 0 min -5,8 C -6,9 C 8,0 km/h (2 Bft)
03.01.2016 18:05 -2,5 C 21,6 C -2,3 C -3,3 C -4,9 C 0,0 C 78 % 82 % 0 % 1009,9 hPa 0,0 l/m 5,3 km/h (1 Bft) O-NO 67 0 min -5,8 C -7,3 C 3,4 km/h (1 Bft)
03.01.2016 18:10 -2,5 C 21,6 C -2,3 C -3,2 C -4,7 C 0,0 C 78 % 82 % 0 % 1009,4 hPa 0,0 l/m 4,8 km/h (1 Bft) O 90 0 min -5,8 C -6,8 C 7,7 km/h (2 Bft)
03.01.2016 18:15 -2,5 C 21,6 C -2,3 C -3,2 C -4,6 C 0,0 C 78 % 82 % 0 % 1009,4 hPa 0,0 l/m 4,7 km/h (1 Bft) O 90 0 min -5,8 C -6,6 C 5,5 km/h (1 Bft)
03.01.2016 18:20 -2,5 C 21,6 C -2,3 C -3,2 C -4,7 C 0,0 C 78 % 82 % 0 % 1009,4 hPa 0,0 l/m 5,0 km/h (1 Bft) SO 135 0 min -5,8 C -6,9 C 3,5 km/h (1 Bft)
03.01.2016 18:25 -2,5 C 21,6 C -2,3 C -3,1 C -4,4 C 0,0 C 78 % 82 % 0 % 1009,4 hPa 0,0 l/m 4,3 km/h (1 Bft) O-NO 67 0 min -5,8 C -4,4 C 6,4 km/h (2 Bft)
03.01.2016 18:30 -2,5 C 21,6 C -2,3 C -3,2 C -4,5 C 0,0 C 78 % 82 % 0 % 1009,1 hPa 0,0 l/m 4,5 km/h (1 Bft) O-NO 67 0 min -5,8 C -4,5 C 6,4 km/h (2 Bft)
03.01.2016 18:35 -2,5 C 21,5 C -2,3 C -3,2 C -4,7 C 0,0 C 78 % 82 % 0 % 1009,1 hPa 0,0 l/m 5,0 km/h (1 Bft) N-NO 22 0 min -5,8 C -6,9 C 7,1 km/h (2 Bft)
03.01.2016 18:41 -2,5 C 21,6 C -2,3 C -3,2 C -4,7 C 0,0 C 78 % 82 % 0 % 1009,1 hPa 0,0 l/m 4,8 km/h (1 Bft) N 0 0 min -5,8 C -6,8 C 7,9 km/h (2 Bft)
03.01.2016 18:50 -2,5 C 21,5 C -2,3 C -3,1 C -4,4 C 0,0 C 78 % 82 % 0 % 1009,5 hPa 0,0 l/m 4,3 km/h (1 Bft) NO 45 0 min -5,8 C -4,4 C 7,1 km/h (2 Bft)
03.01.2016 18:55 -2,5 C 21,5 C -2,3 C -3,1 C -4,4 C 0,0 C 78 % 81 % 0 % 1009,5 hPa 0,0 l/m 4,3 km/h (1 Bft) O-NO 67 0 min -5,8 C -4,4 C 3,5 km/h (1 Bft)
03.01.2016 19:00 -2,7 C 21,5 C -2,3 C -3,2 C -4,1 C 0,0 C 78 % 81 % 0 % 1009,5 hPa 0,0 l/m 3,9 km/h (1 Bft) O-NO 67 0 min -6,0 C -4,1 C 3,5 km/h (1 Bft)
03.01.2016 19:05 -2,7 C 21,5 C -2,3 C -3,0 C -3,7 C 0,0 C 77 % 81 % 0 % 1009,5 hPa 0,0 l/m 3,2 km/h (1 Bft) NO 45 0 min -6,2 C -3,7 C 0,0 km/h (0 Bft)
03.01.2016 19:10 -2,7 C 21,5 C -2,3 C -2,7 C -2,8 C 0,0 C 78 % 81 % 0 % 1008,6 hPa 0,0 l/m 2,3 km/h (1 Bft) N-NO 22 0 min -6,0 C -2,8 C 5,1 km/h (1 Bft)
03.01.2016 19:15 -2,7 C 21,5 C -2,3 C -2,7 C -2,8 C 0,0 C 78 % 81 % 0 % 1008,6 hPa 0,0 l/m 1,8 km/h (1 Bft) SO 135 0 min -6,0 C -2,8 C 3,7 km/h (1 Bft)
03.01.2016 19:20 -2,5 C 21,5 C -2,3 C -2,7 C -3,1 C 0,0 C 78 % 81 % 0 % 1008,6 hPa 0,0 l/m 2,4 km/h (1 Bft) O-SO 112 0 min -5,8 C -3,1 C 5,0 km/h (1 Bft)
03.01.2016 19:25 -2,7 C 21,5 C -2,3 C -3,1 C -3,8 C 0,0 C 77 % 81 % 0 % 1008,6 hPa 0,0 l/m 3,4 km/h (1 Bft) O-NO 67 0 min -6,2 C -3,8 C 2,7 km/h (1 Bft)
03.01.2016 19:30 -2,7 C 21,5 C -2,3 C -3,2 C -4,3 C 0,0 C 78 % 81 % 0 % 1008,2 hPa 0,0 l/m 4,0 km/h (1 Bft) O-NO 67 0 min -6,0 C -4,3 C 6,0 km/h (2 Bft)
03.01.2016 19:35 -2,7 C 21,5 C -2,3 C -3,1 C -3,9 C 0,0 C 78 % 81 % 0 % 1008,2 hPa 0,0 l/m 3,4 km/h (1 Bft) O-NO 67 0 min -6,0 C -3,9 C 5,0 km/h (1 Bft)
03.01.2016 19:40 -2,7 C 21,5 C -2,3 C -3,0 C -3,7 C 0,0 C 78 % 81 % 0 % 1008,2 hPa 0,0 l/m 3,1 km/h (1 Bft) O-SO 112 0 min -6,0 C -3,7 C 1,8 km/h (1 Bft)
03.01.2016 19:45 -2,7 C 21,5 C -2,3 C -3,0 C -3,7 C 0,0 C 77 % 81 % 0 % 1008,2 hPa 0,0 l/m 3,1 km/h (1 Bft) O-NO 67 0 min -6,2 C -3,7 C 3,4 km/h (1 Bft)
03.01.2016 19:50 -2,7 C 21,5 C -2,3 C -2,9 C -3,4 C 0,0 C 78 % 81 % 0 % 1008,2 hPa 0,0 l/m 2,7 km/h (1 Bft) O-SO 112 0 min -6,0 C -3,4 C 6,6 km/h (2 Bft)
03.01.2016 19:55 -2,7 C 21,5 C -2,3 C -3,1 C -3,9 C 0,0 C 78 % 81 % 0 % 1008,2 hPa 0,0 l/m 3,4 km/h (1 Bft) O 90 0 min -6,0 C -3,9 C 2,6 km/h (1 Bft)
03.01.2016 20:00 -2,7 C 21,5 C -2,3 C -3,1 C -3,8 C 0,0 C 77 % 81 % 0 % 1008,2 hPa 0,0 l/m 3,2 km/h (1 Bft) O 90 0 min -6,2 C -3,8 C 3,4 km/h (1 Bft)
03.01.2016 20:05 -2,7 C 21,5 C -2,3 C -2,9 C -3,3 C 0,0 C 77 % 81 % 0 % 1008,2 hPa 0,0 l/m 2,6 km/h (1 Bft) O-NO 67 0 min -6,2 C -3,3 C 4,8 km/h (1 Bft)
03.01.2016 20:10 -2,7 C 21,5 C -2,3 C -3,2 C -4,3 C 0,0 C 77 % 81 % 0 % 1007,6 hPa 0,0 l/m 4,0 km/h (1 Bft) O-SO 112 0 min -6,2 C -4,3 C 2,9 km/h (1 Bft)
03.01.2016 20:15 -2,7 C 21,5 C -2,4 C -3,4 C -4,7 C 0,0 C 77 % 81 % 0 % 1007,6 hPa 0,0 l/m 4,7 km/h (1 Bft) O-NO 67 0 min -6,2 C -6,8 C 4,8 km/h (1 Bft)
03.01.2016 20:20 -2,7 C 21,5 C -2,4 C -3,5 C -5,0 C 0,0 C 77 % 81 % 0 % 1007,6 hPa 0,0 l/m 5,0 km/h (1 Bft) O-SO 112 0 min -6,2 C -7,3 C 4,2 km/h (1 Bft)
03.01.2016 20:25 -2,7 C 21,5 C -2,4 C -3,5 C -5,1 C 0,0 C 77 % 81 % 0 % 1007,6 hPa 0,0 l/m 5,1 km/h (1 Bft) SO 135 0 min -6,2 C -7,4 C 3,7 km/h (1 Bft)
03.01.2016 20:30 -2,7 C 21,5 C -2,5 C -3,4 C -4,8 C 0,0 C 77 % 81 % 0 % 1007,0 hPa 0,0 l/m 4,7 km/h (1 Bft) O 90 0 min -6,2 C -6,9 C 2,4 km/h (1 Bft)
03.01.2016 20:35 -2,8 C 21,5 C -2,5 C -3,3 C -4,4 C 0,0 C 77 % 81 % 0 % 1007,0 hPa 0,0 l/m 3,9 km/h (1 Bft) O-NO 67 0 min -6,3 C -4,4 C 2,9 km/h (1 Bft)
03.01.2016 20:40 -2,8 C 21,5 C -2,5 C -3,2 C -3,9 C 0,0 C 77 % 81 % 0 % 1007,0 hPa 0,0 l/m 2,9 km/h (1 Bft) NO 45 0 min -6,3 C -3,9 C 3,2 km/h (1 Bft)
03.01.2016 20:45 -2,8 C 21,5 C -2,5 C -3,0 C -3,5 C 0,0 C 77 % 81 % 0 % 1007,0 hPa 0,0 l/m 2,4 km/h (1 Bft) W-SW 247 0 min -6,3 C -3,5 C 0,0 km/h (0 Bft)
03.01.2016 20:50 -2,9 C 21,5 C -2,6 C -3,0 C -3,3 C 0,0 C 77 % 81 % 0 % 1006,6 hPa 0,0 l/m 1,9 km/h (1 Bft) O-NO 67 0 min -6,4 C -3,3 C 0,0 km/h (0 Bft)
03.01.2016 20:55 -2,9 C 21,5 C -2,5 C -3,3 C -4,2 C 0,0 C 77 % 81 % 0 % 1006,6 hPa 0,0 l/m 3,1 km/h (1 Bft) O-NO 67 0 min -6,4 C -4,2 C 4,7 km/h (1 Bft)
03.01.2016 21:00 -2,9 C 21,5 C -2,7 C -3,5 C -4,7 C 0,0 C 77 % 81 % 0 % 1006,6 hPa 0,0 l/m 3,7 km/h (1 Bft) N-NO 22 0 min -6,4 C -4,7 C 3,5 km/h (1 Bft)
03.01.2016 21:05 -2,9 C 21,5 C -2,8 C -3,3 C -4,2 C 0,0 C 77 % 81 % 0 % 1006,6 hPa 0,0 l/m 2,9 km/h (1 Bft) O 90 0 min -6,4 C -4,2 C 3,4 km/h (1 Bft)
03.01.2016 21:10 -3,0 C 21,6 C -2,9 C -3,4 C -4,1 C 0,0 C 77 % 81 % 0 % 1006,1 hPa 0,0 l/m 2,6 km/h (1 Bft) O-NO 67 0 min -6,4 C -4,1 C 1,8 km/h (1 Bft)
03.01.2016 21:15 -2,9 C 21,6 C -2,9 C -3,3 C -4,0 C 0,0 C 77 % 82 % 0 % 1006,1 hPa 0,0 l/m 2,4 km/h (1 Bft) W 270 0 min -6,4 C -4,0 C 2,1 km/h (1 Bft)
03.01.2016 21:20 -2,9 C 21,6 C -2,9 C -3,2 C -3,8 C 0,0 C 78 % 82 % 0 % 1006,1 hPa 0,0 l/m 1,8 km/h (1 Bft) O-NO 67 0 min -6,2 C -3,8 C 4,0 km/h (1 Bft)
03.01.2016 21:25 -3,1 C 21,6 C -2,9 C -3,4 C -3,9 C 0,0 C 78 % 82 % 0 % 1006,1 hPa 0,0 l/m 2,3 km/h (1 Bft) O 90 0 min -6,4 C -3,9 C 4,0 km/h (1 Bft)
03.01.2016 21:30 -3,1 C 21,6 C -2,9 C -3,5 C -4,2 C 0,0 C 78 % 82 % 0 % 1005,8 hPa 0,0 l/m 2,6 km/h (1 Bft) O-NO 67 0 min -6,4 C -4,2 C 0,0 km/h (0 Bft)
03.01.2016 21:35 -3,1 C 21,6 C -2,9 C -3,6 C -4,7 C 0,0 C 78 % 82 % 0 % 1005,8 hPa 0,0 l/m 3,2 km/h (1 Bft) O 90 0 min -6,4 C -4,7 C 7,6 km/h (2 Bft)
03.01.2016 21:41 -3,1 C 21,5 C -2,9 C -3,8 C -5,1 C 0,0 C 78 % 82 % 0 % 1005,8 hPa 0,0 l/m 3,9 km/h (1 Bft) N 0 0 min -6,4 C -5,1 C 4,2 km/h (1 Bft)
03.01.2016 21:50 -3,2 C 21,6 C -3,0 C -3,4 C -3,8 C 0,0 C 78 % 82 % 0 % 1005,7 hPa 0,0 l/m 1,6 km/h (1 Bft) O-NO 67 0 min -6,5 C -3,8 C 2,4 km/h (1 Bft)
03.01.2016 21:55 -3,2 C 21,6 C -2,9 C -3,4 C -3,7 C 0,0 C 78 % 82 % 0 % 1005,7 hPa 0,0 l/m 1,8 km/h (1 Bft) W 270 0 min -6,5 C -3,7 C 3,9 km/h (1 Bft)
03.01.2016 22:00 -3,2 C 21,6 C -2,9 C -3,4 C -3,7 C 0,0 C 78 % 82 % 0 % 1005,7 hPa 0,0 l/m 1,1 km/h (1 Bft) NO 45 0 min -6,5 C -3,7 C 0,0 km/h (0 Bft)
03.01.2016 22:05 -3,2 C 21,6 C -2,9 C -3,4 C -3,7 C 0,0 C 78 % 82 % 0 % 1005,7 hPa 0,0 l/m 1,1 km/h (1 Bft) SW 225 0 min -6,5 C -3,7 C 0,0 km/h (0 Bft)
03.01.2016 22:10 -3,2 C 21,6 C -2,9 C -3,5 C -4,1 C 0,0 C 78 % 82 % 0 % 1004,9 hPa 0,0 l/m 2,7 km/h (1 Bft) O-NO 67 0 min -6,5 C -4,1 C 4,7 km/h (1 Bft)
03.01.2016 22:15 -3,1 C 21,6 C -2,7 C -3,5 C -4,3 C 0,0 C 78 % 82 % 0 % 1004,9 hPa 0,0 l/m 3,1 km/h (1 Bft) O-NO 67 0 min -6,4 C -4,3 C 3,2 km/h (1 Bft)
03.01.2016 22:20 -3,2 C 21,6 C -2,8 C -3,4 C -3,9 C 0,0 C 78 % 82 % 0 % 1004,9 hPa 0,0 l/m 2,7 km/h (1 Bft) O-NO 67 0 min -6,5 C -3,9 C 3,4 km/h (1 Bft)
03.01.2016 22:25 -3,2 C 21,6 C -2,8 C -3,5 C -4,1 C 0,0 C 78 % 82 % 0 % 1004,9 hPa 0,0 l/m 2,9 km/h (1 Bft) O-NO 67 0 min -6,5 C -4,1 C 6,6 km/h (2 Bft)
03.01.2016 22:30 -3,2 C 21,6 C -2,7 C -3,5 C -4,1 C 0,0 C 78 % 82 % 0 % 1005,0 hPa 0,0 l/m 2,9 km/h (1 Bft) O-SO 112 0 min -6,5 C -4,1 C 3,4 km/h (1 Bft)
03.01.2016 22:35 -3,2 C 21,6 C -2,7 C -3,5 C -4,1 C 0,0 C 78 % 82 % 0 % 1005,0 hPa 0,0 l/m 2,9 km/h (1 Bft) O-NO 67 0 min -6,5 C -4,1 C 3,4 km/h (1 Bft)
03.01.2016 22:40 -3,1 C 21,6 C -2,7 C -3,5 C -4,3 C 0,0 C 78 % 82 % 0 % 1005,0 hPa 0,0 l/m 3,4 km/h (1 Bft) O-SO 112 0 min -6,4 C -4,3 C 2,9 km/h (1 Bft)
03.01.2016 22:45 -3,1 C 21,6 C -2,5 C -3,4 C -3,9 C 0,0 C 78 % 82 % 0 % 1005,0 hPa 0,0 l/m 2,9 km/h (1 Bft) O-SO 112 0 min -6,4 C -3,9 C 0,0 km/h (0 Bft)
03.01.2016 22:50 -3,1 C 21,6 C -2,6 C -3,4 C -3,9 C 0,0 C 78 % 82 % 0 % 1004,1 hPa 0,0 l/m 2,9 km/h (1 Bft) O 90 0 min -6,4 C -3,9 C 5,3 km/h (1 Bft)
03.01.2016 22:55 -3,1 C 21,6 C -2,5 C -3,3 C -3,8 C 0,0 C 78 % 82 % 0 % 1004,1 hPa 0,0 l/m 2,7 km/h (1 Bft) O-NO 67 0 min -6,4 C -3,8 C 3,4 km/h (1 Bft)
03.01.2016 23:00 -2,9 C 21,6 C -2,5 C -3,4 C -4,4 C 0,0 C 78 % 82 % 0 % 1004,1 hPa 0,0 l/m 3,7 km/h (1 Bft) NO 45 0 min -6,2 C -4,4 C 3,7 km/h (1 Bft)
03.01.2016 23:05 -2,9 C 21,6 C -2,5 C -3,3 C -4,1 C 0,0 C 78 % 82 % 0 % 1004,1 hPa 0,0 l/m 3,2 km/h (1 Bft) O-NO 67 0 min -6,2 C -4,1 C 4,2 km/h (1 Bft)
03.01.2016 23:10 -2,9 C 21,6 C -2,5 C -3,0 C -3,3 C 0,0 C 78 % 82 % 0 % 1004,1 hPa 0,0 l/m 2,3 km/h (1 Bft) O-SO 112 0 min -6,2 C -3,3 C 0,0 km/h (0 Bft)
03.01.2016 23:15 -2,9 C 21,6 C -2,5 C -3,0 C -3,2 C 0,0 C 78 % 82 % 0 % 1004,1 hPa 0,0 l/m 1,8 km/h (1 Bft) O-NO 67 0 min -6,2 C -3,2 C 0,0 km/h (0 Bft)
03.01.2016 23:20 -2,9 C 21,5 C -2,5 C -3,0 C -3,3 C 0,0 C 78 % 82 % 0 % 1004,1 hPa 0,0 l/m 1,0 km/h (0 Bft) O-NO 67 0 min -6,2 C -3,3 C 4,3 km/h (1 Bft)
03.01.2016 23:25 -2,9 C 21,5 C -2,5 C -3,0 C -3,3 C 0,0 C 78 % 82 % 0 % 1004,1 hPa 0,0 l/m 1,3 km/h (1 Bft) O 90 0 min -6,2 C -3,3 C 0,0 km/h (0 Bft)
03.01.2016 23:30 -3,0 C 21,5 C -2,5 C -3,1 C -3,4 C 0,0 C 78 % 82 % 0 % 1003,4 hPa 0,0 l/m 0,8 km/h (0 Bft) N-NO 22 0 min -6,3 C -3,4 C 0,0 km/h (0 Bft)
03.01.2016 23:35 -2,9 C 21,5 C -2,5 C -3,1 C -3,4 C 0,0 C 78 % 82 % 0 % 1003,4 hPa 0,0 l/m 0,6 km/h (0 Bft) O-NO 67 0 min -6,2 C -3,4 C 3,7 km/h (1 Bft)
03.01.2016 23:40 -2,9 C 21,5 C -2,5 C -3,1 C -3,4 C 0,0 C 78 % 82 % 0 % 1003,4 hPa 0,0 l/m 1,8 km/h (1 Bft) W-NW 292 0 min -6,2 C -3,4 C 1,8 km/h (1 Bft)
03.01.2016 23:45 -2,9 C 21,5 C -2,5 C -3,1 C -3,4 C 0,0 C 78 % 81 % 0 % 1003,4 hPa 0,0 l/m 1,6 km/h (1 Bft) O-SO 112 0 min -6,2 C -3,4 C 0,0 km/h (0 Bft)
03.01.2016 23:50 -3,0 C 21,5 C -2,5 C -3,1 C -3,4 C 0,0 C 77 % 81 % 0 % 1002,8 hPa 0,0 l/m 1,3 km/h (1 Bft) O 90 0 min -6,4 C -3,4 C 0,0 km/h (0 Bft)
03.01.2016 23:55 -3,0 C 21,5 C -2,5 C -3,1 C -3,4 C 0,0 C 77 % 81 % 0 % 1002,8 hPa 0,0 l/m 2,1 km/h (1 Bft) O-NO 67 0 min -6,4 C -3,4 C 5,8 km/h (2 Bft)
_ Min-Zeit 02:00 10:40 21:50 02:00 09:30 00:00 12:50 12:00 00:00 23:50 - 23:35 - - - 21:50 04:20 08:15
Minimum _ -3,7 C 21,5 C -3,0 C -4,0 C -5,3 C 0,0 C 75 % 77 % 0 % 1002,8 hPa - 0,6 km/h (0 Bft) - - - -6,5 C -9,7 C 0,0 km/h (0 Bft)
_ Max-Zeit 12:00 00:00 11:50 11:55 11:55 11:55 00:00 01:00 11:55 00:50 00:00 03:55 - - 00:00 04:20 11:55 04:20
Maximum _ -0,9 C 22,3 C -0,1 C 1,2 C 1,2 C 2,3 C 86 % 90 % 61 % 1018,1 hPa 0,0 l/m 11,3 km/h
O-NO (2 Bft)
- - 0 min -4,1 C 1,2 C 17,5 km/h
O-NO (3 Bft)
Durchschnitt _ -2,2 C 21,7 C -1,6 C -2,7 C -3,8 C 0,0 C 79 % 83 % 1 % 1012,9 hPa #0,0 l/m 5,2 km/h (1 Bft) O-NO - #0 min. -5,4 C -5,5 C 6,4 km/h (2 Bft)
2016 www.wetterstation-wechselburg.de